Tracking 27401 objects as of 4-Jun-2023
HD Live streaming from Space Station
objects crossing your sky now

STARLINK-1624

Track STARLINK-1624 now!
10-day predictions
STARLINK-1624 is classified as:


NORAD ID: 46130
Int'l Code: 2020-057P
Perigee: 553.5 km
Apogee: 555.2 km
Inclination: 53.1 °
Period: 95.6 minutes
Semi major axis: 6925 km
RCS: Unknown
Launch date: August 18, 2020
Source: United States (US)
Launch site: AIR FORCE EASTERN TEST RANGE (AFETR)
Your satellite tracking list
Your tracking list is empty




NASA's NSSDC Master Catalog

Two Line Element Set (TLE):
1 46130U 20057P   23154.35490262 -.00000468  00000-0 -12528-4 0  9996
2 46130  53.0541 132.1885 0001222  94.9794 265.1335 15.06389946155592
Source of the keplerian elements: AFSPC